DW6761 Weather Reports


time (UTC)temp
C
wind
direction
speed
KPH
gust
KPH
rain 1hr
cm
rain 24hr
cm
rain mn
cm
humidity
%
barometer
mb
20260506163039 8 138 0.0 0.0 0.00 0.00 0.00 97 1015.2
20260506161638 8 127 0.0 0.0 0.00 0.00 0.00 97 1015.1
20260506160110 8 118 0.0 0.0 0.00 0.00 0.00 97 1015.0
20260506154525 8 126 0.0 0.0 0.00 0.00 0.00 97 1015.1
20260506153033 8 118 0.0 0.0 0.00 0.00 0.00 97 1015.0
20260506151525 8 122 0.0 0.0 0.00 0.00 0.00 97 1015.1
20260506150025 8 145 0.0 0.0 0.00 0.00 0.00 97 1015.0
20260506144528 8 138 0.0 0.0 0.00 0.00 0.00 97 1014.8
20260506143017 8 112 1.6 0.0 0.00 0.00 0.00 97 1014.7
20260506141521 8 116 0.0 0.0 0.00 0.00 0.00 97 1014.7
20260506140043 8 136 1.6 0.0 0.00 0.00 0.00 97 1014.7
20260506134548 8 117 0.0 0.0 0.00 0.00 0.00 97 1014.5
20260506133052 8 140 0.0 0.0 0.00 0.00 0.00 96 1014.6
20260506131553 8 115 0.0 0.0 0.00 0.00 0.00 97 1014.5
20260506130045 8 127 0.0 0.0 0.00 0.00 0.00 97 1014.5
20260506124517 8 123 0.0 0.0 0.00 0.00 0.00 97 1014.4
20260506123056 8 115 0.0 0.0 0.00 0.00 0.00 97 1014.3
20260506121523 8 90 0.0 0.0 0.00 0.00 0.00 97 1014.1
20260506120106 8 169 1.6 0.0 0.00 0.00 0.00 96 1014.0
20260506114647 8 117 1.6 0.0 0.00 0.00 0.00 96 1013.8
20260506113004 8 144 0.0 0.0 0.00 0.00 0.00 97 1013.7
20260506111554 8 111 0.0 0.0 0.00 0.00 0.00 96 1013.8
20260506110057 8 126 0.0 0.0 0.00 0.00 0.00 96 1013.7
20260506104637 8 114 1.6 0.0 0.00 0.00 0.00 96 1013.7
20260506103129 8 120 1.6 0.0 0.00 0.00 0.00 97 1013.6
20260506101528 8 136 1.6 0.0 0.00 0.00 0.00 96 1013.4
20260506100126 9 134 1.6 0.0 0.00 0.00 0.00 96 1013.4
20260506094533 9 119 0.0 0.0 0.00 0.00 0.00 96 1013.2
20260506093027 10 121 0.0 0.0 0.00 0.00 0.00 97 1012.9
20260506091613 10 136 0.0 0.0 0.00 0.00 0.00 97 1012.9
20260506090127 10 132 0.0 0.0 0.00 0.00 0.00 97 1012.6
20260506084547 10 149 1.6 0.0 0.00 0.00 0.00 96 1012.5
20260506083018 10 140 1.6 0.0 0.00 0.00 0.00 96 1012.5
20260506081523 10 131 1.6 0.0 0.00 0.00 0.00 96 1012.4
20260506073113 10 159 0.0 0.0 0.00 0.00 0.00 97 1012.2
20260506071629 10 171 0.0 0.0 0.00 0.00 0.00 97 1012.0
20260506070126 10 202 0.0 0.0 0.00 0.00 0.00 97 1012.0
20260506061547 10 171 0.0 0.0 0.00 0.00 0.00 96 1011.8
20260506044519 10 237 0.0 0.0 0.00 0.00 0.00 96 1011.8
20260506043105 10 226 0.0 0.0 0.00 0.00 0.00 96 1011.6
20260506041631 10 224 0.0 0.0 0.00 0.00 0.00 96 1011.7
20260506040006 10 219 0.0 0.0 0.00 0.00 0.00 96 1011.7
20260506034531 10 227 0.0 0.0 0.00 0.00 0.00 96 1011.6
20260506033025 10 227 0.0 0.0 0.00 0.00 0.00 96 1011.6
20260506031525 10 215 0.0 0.0 0.00 0.00 0.00 96 1011.9
20260506030025 10 224 1.6 0.0 0.00 0.00 0.00 96 1012.0
20260506024643 10 244 0.0 0.0 0.00 0.00 0.00 96 1012.2
20260506023016 10 232 0.0 0.0 0.00 0.00 0.00 96 1012.3
20260506021645 10 235 0.0 0.0 0.00 0.00 0.00 96 1012.3
20260506020111 10 213 0.0 0.0 0.00 0.00 0.00 96 1012.5
20260506014534 10 222 0.0 0.0 0.00 0.00 0.00 95 1012.4
20260506013015 10 232 0.0 0.0 0.00 0.00 0.00 96 1012.7
20260506011635 10 217 0.0 0.0 0.00 0.00 0.00 95 1012.7
20260506010108 11 240 0.0 0.0 0.00 0.00 0.00 95 1012.7
20260506004608 11 244 0.0 0.0 0.00 0.00 0.00 95 1012.9
20260506003007 11 210 0.0 0.0 0.00 0.00 0.00 95 1013.1
20260506001512 11 215 0.0 0.0 0.00 0.00 0.00 95 1013.1
20260506000135 11 172 0.0 0.0 0.00 0.00 0.00 95 1013.2
20260505234536 11 218 0.0 0.0 0.00 0.00 0.00 95 1013.4
20260505233035 11 197 0.0 0.0 0.00 0.00 0.00 95 1013.5
20260505231636 11 213 0.0 0.0 0.00 0.00 0.00 95 1013.5
20260505230008 11 227 0.0 0.0 0.00 0.00 0.00 95 1013.5
20260505224519 11 203 0.0 0.0 0.00 0.00 0.00 95 1013.6
20260505223052 11 171 0.0 0.0 0.00 0.00 0.00 95 1013.7
20260505221522 11 194 0.0 0.0 0.00 0.00 0.00 94 1013.7
20260505220001 11 198 0.0 0.0 0.00 0.00 0.00 94 1013.9
20260505214621 11 178 0.0 0.0 0.00 0.00 0.00 94 1014.1
20260505213044 11 194 0.0 0.0 0.00 0.00 0.00 94 1014.1
20260505211619 11 194 0.0 0.0 0.00 0.00 0.00 94 1014.3
20260505210115 12 205 0.0 0.0 0.00 0.00 0.00 94 1014.2
20260505204622 12 203 0.0 0.0 0.00 0.00 0.00 94 1014.4
20260505203014 12 216 0.0 0.0 0.00 0.00 0.00 94 1014.4
20260505201503 12 204 0.0 0.0 0.00 0.00 0.00 93 1014.4
20260505200110 12 220 0.0 0.0 0.00 0.00 0.00 93 1014.4
20260505194516 12 216 0.0 0.0 0.00 0.00 0.00 93 1014.4
20260505193044 12 168 0.0 0.0 0.00 0.00 0.00 92 1014.5
20260505191622 12 209 0.0 0.0 0.00 0.00 0.00 92 1014.4
20260505190028 12 209 0.0 0.0 0.00 0.00 0.00 92 1014.4
20260505184520 12 192 0.0 0.0 0.00 0.00 0.00 91 1014.5
20260505183112 13 213 0.0 0.0 0.00 0.00 0.00 91 1014.5
20260505181526 13 197 0.0 0.0 0.00 0.00 0.00 90 1014.6
20260505180025 13 198 0.0 0.0 0.00 0.00 0.00 89 1014.5
20260505174502 13 165 0.0 0.0 0.00 0.00 0.00 89 1014.5
20260505173115 13 203 0.0 0.0 0.00 0.00 0.00 88 1014.6
20260505171628 13 177 0.0 0.0 0.00 0.00 0.00 88 1014.4
20260505170120 14 186 0.0 0.0 0.00 0.00 0.00 87 1014.5